Simultaneous Nadir Overpasses (SNOs) Predictions

Prediction of SNOs between GOES-15 and TERRA Satellite Orbit:

Table of predicted SNOs for the next 14.0 days since TLE Epoch: 4/26/2014
Index Date Time (GOES-15) GOES-15 Lat,Lon TERRA Lat,Lon Distance(km) Time Diff (sec)
1 04/26/2014 07:49:05 0.01,-135.37 -0.81,-139.29 445.84 80
2 04/27/2014 19:15:29 -0.01,-135.37 -0.92,-131.14 481.34 80
3 04/28/2014 07:36:52 0.01,-135.34 -0.19,-136.32 111.57 80
4 04/30/2014 07:22:00 0.01,-135.31 0.44,-133.37 221.83 80
5 04/30/2014 19:43:15 -0.01,-135.32 0.67,-138.52 363.69 80
6 05/02/2014 19:31:04 -0.01,-135.28 0.02,-135.56 31.55 80
7 05/04/2014 19:21:33 -0.02,-135.24 -0.58,-132.60 299.93 80
8 05/05/2014 07:42:58 0.02,-135.22 -0.51,-137.80 293.46 80
9 05/07/2014 07:28:08
